Weather History for Lakeland Region, FL

Change the Weather History Date:

Sunday, August 24, 2014

  Actual Average Record
Temperature  
Mean Temperature 84 °F -  
Max Temperature 95 °F 88 °F 95 °F (2011)
Min Temperature 73 °F 72 °F 71 °F (1996)
Cooling Degree Days 19    
Growing Degree Days 34 (Base 50)    
Moisture  
Dew Point 74 °F    
Average Humidity 85    
Maximum Humidity 100    
Minimum Humidity 47    
Precipitation  
Precipitation 0.00 in - - ()
Sea Level Pressure  
Sea Level Pressure 29.85 in    
Wind  
Wind Speed 3 mph (NNW)    
Max Wind Speed 12 mph    
Max Gust Speed 17 mph    
Visibility 10 miles    
Events Rain , Thunderstorm    
Averages and records for this station are not official NWS values.
T = Trace of Precipitation, MM = Missing Value Source: NWS Daily Summary

Daily Weather History Graph

Daily Weather History Graph

Search for Another Location

Airport:

Trip Planner

Search our weather history database for the weather conditions in past years. The results will help you decide how hot, cold, wet, or windy it might be!

Date:

Astronomy

Aug. 24, 2014 Rise Set
Actual Time 7:02 AM EDT 7:57 PM EDT
Civil Twilight 6:38 AM EDT 8:21 PM EDT
Nautical Twilight 6:10 AM EDT 8:50 PM EDT
Astronomical Twilight 5:40 AM EDT 9:19 PM EDT
Moon 6:11 AM EDT (8/24) 7:17 PM EDT (8/24)
Length of Visible Light 13h 43m
Length of Day
12h 54m
Waning Crescent, 1% of the Moon is Illuminated
Aug 24
Waning Crescent
Aug 25
New
Sep 2
First Quarter
Sep 8
Full
Sep 15
Last Quarter

Hourly Weather History & Observations

Time (EDT) Temp. Heat Index Dew Point Humidity Pressure Visibility Wind Dir Wind Speed Gust Speed Precip Events Conditions
12:15 AM 75.2 °F - 69.8 °F 83% 29.92 in 10.0 mi ESE 4.6 mph - N/A   Clear
12:35 AM 75.2 °F - 69.8 °F 83% 29.92 in 10.0 mi Calm Calm - N/A   Clear
12:55 AM 75.2 °F - 69.8 °F 83% 29.91 in 10.0 mi Calm Calm - N/A   Clear
1:15 AM 75.2 °F - 69.8 °F 83% 29.91 in 10.0 mi Calm Calm - N/A   Clear
1:35 AM 73.4 °F - 73.4 °F 100% 29.90 in 10.0 mi Calm Calm - N/A   Clear
1:55 AM 73.4 °F - 73.4 °F 100% 29.90 in 10.0 mi South 3.5 mph - N/A   Clear
2:15 AM 73.4 °F - 73.4 °F 100% 29.90 in 10.0 mi South 3.5 mph - N/A   Clear
2:35 AM 75.2 °F - 75.2 °F 100% 29.89 in 10.0 mi Calm Calm - N/A   Clear
2:55 AM 75.2 °F - 75.2 °F 100% 29.89 in 10.0 mi Calm Calm - N/A   Clear
3:15 AM 75.2 °F - 75.2 °F 100% 29.88 in 10.0 mi Calm Calm - N/A   Clear
3:35 AM 75.2 °F - 75.2 °F 100% 29.87 in 10.0 mi Calm Calm - N/A   Clear
3:55 AM 73.4 °F - 73.4 °F 100% 29.86 in 10.0 mi Calm Calm - N/A   Clear
4:15 AM 73.4 °F - 73.4 °F 100% 29.86 in 10.0 mi WNW 4.6 mph - N/A   Clear
4:35 AM 73.4 °F - 73.4 °F 100% 29.86 in 10.0 mi NW 4.6 mph - N/A   Clear
4:55 AM 73.4 °F - 73.4 °F 100% 29.86 in 10.0 mi Calm Calm - N/A   Clear
5:15 AM 75.2 °F - 75.2 °F 100% 29.86 in 10.0 mi Calm Calm - N/A   Clear
5:35 AM 75.2 °F - 75.2 °F 100% 29.86 in 10.0 mi Calm Calm - N/A   Mostly Cloudy
6:50 AM 75.2 °F - 75.2 °F 100% 29.86 in 10.0 mi Calm Calm - N/A   Clear
7:50 AM 75.2 °F - 75.2 °F 100% 29.86 in 10.0 mi Calm Calm - N/A   Clear
8:50 AM 80.6 °F 85.4 °F 73.4 °F 79% 29.87 in 10.0 mi Calm Calm - N/A   Clear
9:50 AM 84.2 °F 90.9 °F 73.4 °F 70% 29.88 in 10.0 mi Calm Calm - N/A   Clear
10:50 AM 89.6 °F 96.2 °F 71.6 °F 55% 29.88 in 12.0 mi Calm Calm - N/A   Clear
11:50 AM 91.4 °F 98.4 °F 71.6 °F 52% 29.87 in 12.0 mi NW 8.1 mph - N/A   Clear
12:50 PM 91.4 °F 98.4 °F 71.6 °F 52% 29.86 in 12.0 mi NNW 6.9 mph - N/A   Partly Cloudy
2:52 PM 95.0 °F 103.2 °F 71.6 °F 47% 29.81 in 12.0 mi NNW 6.9 mph - N/A   Scattered Clouds
3:56 PM 95.0 °F 103.2 °F 71.6 °F 47% 29.78 in 12.0 mi NNW 6.9 mph - N/A   Mostly Cloudy
4:53 PM 93.2 °F 100.5 °F 71.6 °F 49% 29.76 in 12.0 mi NNW 5.8 mph - N/A   Mostly Cloudy
5:45 PM 91.4 °F 98.4 °F 71.6 °F 52% 29.76 in 7.0 mi NNE 11.5 mph 17.3 mph N/A Thunderstorm Thunderstorm
6:05 PM 84.2 °F 88.4 °F 69.8 °F 62% 29.78 in 10.0 mi West 8.1 mph - N/A Thunderstorm Thunderstorm
6:52 PM 78.8 °F - 73.4 °F 83% 29.82 in 10.0 mi West 5.8 mph - N/A Rain , Thunderstorm Light Thunderstorms and Rain
7:54 PM 78.8 °F - 78.8 °F 100% 29.80 in 10.0 mi North 3.5 mph - N/A   Mostly Cloudy
8:51 PM 77.0 °F - 75.2 °F 94% 29.83 in 12.0 mi North 4.6 mph - N/A   Mostly Cloudy
9:50 PM 77.0 °F - 77.0 °F 100% 29.83 in 12.0 mi North 5.8 mph - N/A   Mostly Cloudy
10:15 PM 77.0 °F - 77.0 °F 100% 29.83 in 10.0 mi NE 4.6 mph - N/A   Clear
10:35 PM 77.0 °F - 77.0 °F 100% 29.83 in 10.0 mi NNE 3.5 mph - N/A   Clear
10:55 PM 77.0 °F - 77.0 °F 100% 29.83 in 10.0 mi North 3.5 mph - N/A   Clear
11:15 PM - - - N/A% 29.84 in 10.0 mi NNW 4.6 mph - N/A   Clear
11:35 PM - - - N/A% 29.84 in 10.0 mi NNW 3.5 mph - N/A   Clear
11:55 PM - - - N/A% 29.85 in 10.0 mi North 4.6 mph - N/A   Scattered Clouds